Find Starlink 30328

NORAD ID: 57638 Int'l Des: 2023-122 Owner: SPXS Country: US Constellation: starlink operational
LEOCIRCULAR

リアルタイム位置

3D地球を読み込み中...

Starlink 30328について

説明を読み込み中...

次回通過

Passes for default location (London). Set your location on the main map for personalized predictions.

高度履歴

Loading altitude history...

軌道要素

1 57638U 23122G 26107.03248028 -.00001790 00000-0 -55583-4 0 9991
2 57638 43.0060 224.6437 0000717 335.7533 24.3284 15.27563732148216
Epoch: Apr 17, 2026 • Age: 16 hours

現在のステータス

高度 483.0 km
速度 7.63 km/s
衛星直下点 21.37°N, 86.44°W
打ち上げ日 Aug 17, 2023
運用期間 2.6 years
タイプ internet

技術仕様

分類 Payload
質量 730.00 kg
乾燥質量 700.00 kg
総質量 730.00 kg
長さ 0.30 m
直径 4.10 m
スパン 29.00 m
形状 Box + pan
製造者 SPXS
バスタイプ Starlink V2M
フェーズステータス In Orbit
所有者/国 SPXS/US

Most Searched